| time (UTC) | temp F | wind direction | speed MPH | gust MPH | rain 1hr in | rain 24hr in | rain mn in | humidity % | barometer mb |
| 20260902064328 | 60 | 213 | 0.0 | 0.0 | 0.00 | 0.00 | 0.00 | 92 | 1019.7 |
| 20260902063322 | 59 | 213 | 0.0 | 0.0 | 0.00 | 0.00 | 0.00 | 92 | 1019.6 |
| 20260902062333 | 59 | 236 | 0.0 | 0.0 | 0.00 | 0.00 | 0.00 | 92 | 1019.7 |
| 20260902061323 | 59 | 192 | 0.0 | 0.0 | 0.00 | 0.00 | 0.00 | 92 | 1019.7 |
| 20260902060328 | 58 | 208 | 0.0 | 0.0 | 0.00 | 0.00 | 0.00 | 92 | 1019.6 |
| 20260902055321 | 58 | 213 | 0.0 | 0.0 | 0.00 | 0.00 | 0.00 | 92 | 1019.6 |
| 20260902054335 | 58 | 239 | 0.0 | 0.0 | 0.00 | 0.00 | 0.00 | 92 | 1019.6 |
| 20260902053328 | 58 | 232 | 0.0 | 0.0 | 0.00 | 0.00 | 0.00 | 92 | 1019.5 |
| 20260902052357 | 58 | 194 | 0.0 | 0.0 | 0.00 | 0.00 | 0.00 | 91 | 1019.4 |
| 20260902051323 | 58 | 203 | 0.0 | 0.0 | 0.00 | 0.00 | 0.00 | 91 | 1019.4 |
| 20260902050407 | 58 | 165 | 0.0 | 0.0 | 0.00 | 0.00 | 0.00 | 91 | 1019.5 |
| 20260902045329 | 58 | 187 | 0.0 | 0.0 | 0.00 | 0.00 | 0.00 | 91 | 1019.3 |
| 20260902044322 | 58 | 218 | 0.0 | 0.0 | 0.00 | 0.00 | 0.00 | 91 | 1019.4 |
| 20260902043339 | 58 | 217 | 0.0 | 0.0 | 0.00 | 0.00 | 0.00 | 91 | 1019.3 |
| 20260902042332 | 58 | 219 | 0.0 | 0.0 | 0.00 | 0.00 | 0.00 | 91 | 1019.3 |
| 20260902041330 | 58 | 213 | 0.0 | 0.0 | 0.00 | 0.00 | 0.00 | 91 | 1019.4 |
| 20260902040348 | 58 | 171 | 0.0 | 0.0 | 0.00 | 0.00 | 0.00 | 90 | 1019.4 |
| 20260902035341 | 58 | 193 | 0.0 | 0.0 | 0.00 | 0.00 | 0.00 | 91 | 1019.3 |
| 20260902034348 | 58 | 180 | 0.0 | 0.0 | 0.00 | 0.00 | 0.00 | 91 | 1019.4 |
| 20260902033326 | 59 | 151 | 0.0 | 0.0 | 0.00 | 0.00 | 0.00 | 91 | 1019.5 |
| 20260902032357 | 58 | 183 | 0.0 | 0.0 | 0.00 | 0.00 | 0.00 | 91 | 1019.6 |
| 20260902031322 | 58 | 198 | 0.0 | 0.0 | 0.00 | 0.00 | 0.00 | 90 | 1019.6 |
| 20260902030329 | 58 | 159 | 0.0 | 0.0 | 0.00 | 0.00 | 0.00 | 90 | 1019.7 |
| 20260902025334 | 59 | 223 | 0.0 | 0.0 | 0.00 | 0.00 | 0.00 | 90 | 1019.7 |
| 20260902024323 | 59 | 221 | 0.0 | 0.0 | 0.00 | 0.00 | 0.00 | 90 | 1019.8 |
| 20260902023331 | 59 | 221 | 0.0 | 0.0 | 0.00 | 0.00 | 0.00 | 90 | 1019.8 |
| 20260902022355 | 59 | 170 | 0.0 | 0.0 | 0.00 | 0.00 | 0.00 | 90 | 1019.8 |
| 20260902021324 | 59 | 171 | 0.0 | 0.0 | 0.00 | 0.00 | 0.00 | 90 | 1019.9 |
| 20260902020346 | 59 | 169 | 0.0 | 0.0 | 0.00 | 0.00 | 0.00 | 90 | 1019.8 |
| 20260902015358 | 59 | 186 | 0.0 | 0.0 | 0.00 | 0.04 | 0.00 | 90 | 1019.9 |
| 20260902014349 | 58 | 194 | 0.0 | 0.0 | 0.00 | 0.04 | 0.00 | 90 | 1019.9 |
| 20260902013322 | 58 | 192 | 0.0 | 0.0 | 0.00 | 0.04 | 0.00 | 90 | 1020.0 |
| 20260902012405 | 58 | 193 | 0.0 | 0.0 | 0.00 | 0.04 | 0.00 | 90 | 1019.9 |
| 20260902011355 | 58 | 193 | 0.0 | 0.0 | 0.00 | 0.04 | 0.00 | 90 | 1020.0 |
| 20260902010331 | 58 | 193 | 0.0 | 0.0 | 0.00 | 0.04 | 0.00 | 89 | 1020.1 |
| 20260902005406 | 58 | 194 | 0.0 | 0.0 | 0.00 | 0.04 | 0.00 | 89 | 1020.2 |
| 20260902004350 | 58 | 203 | 0.0 | 0.0 | 0.00 | 0.04 | 0.00 | 89 | 1020.2 |
| 20260902003336 | 57 | 208 | 0.0 | 0.0 | 0.00 | 0.04 | 0.00 | 88 | 1020.2 |
| 20260902002332 | 57 | 282 | 0.0 | 0.0 | 0.00 | 0.04 | 0.00 | 88 | 1020.3 |
| 20260902001339 | 57 | 282 | 0.0 | 0.0 | 0.00 | 0.04 | 0.00 | 88 | 1020.2 |
| 20260902000332 | 57 | 282 | 0.0 | 0.0 | 0.00 | 0.04 | 0.00 | 87 | 1020.3 |
| 20260901235326 | 57 | 282 | 0.0 | 0.0 | 0.00 | 0.04 | 0.00 | 87 | 1020.3 |
| 20260901234338 | 57 | 282 | 0.0 | 0.0 | 0.00 | 0.04 | 0.00 | 87 | 1020.3 |
| 20260901233332 | 58 | 282 | 0.0 | 0.0 | 0.00 | 0.04 | 0.00 | 87 | 1020.3 |
| 20260901232339 | 58 | 282 | 0.0 | 0.0 | 0.00 | 0.04 | 0.00 | 87 | 1020.4 |
| 20260901231332 | 58 | 282 | 0.0 | 0.0 | 0.00 | 0.04 | 0.00 | 87 | 1020.4 |
| 20260901230342 | 58 | 282 | 0.0 | 0.0 | 0.00 | 0.04 | 0.00 | 87 | 1020.6 |
| 20260901225334 | 58 | 282 | 0.0 | 1.0 | 0.00 | 1.34 | 0.00 | 86 | 1020.7 |
| 20260901224347 | 58 | 282 | 0.0 | 0.0 | 0.00 | 1.34 | 0.00 | 86 | 1020.7 |
| 20260901223359 | 58 | 282 | 0.0 | 0.0 | 0.00 | 1.34 | 0.00 | 86 | 1020.6 |
| 20260901222356 | 59 | 282 | 0.0 | 0.0 | 0.00 | 1.34 | 0.00 | 86 | 1020.6 |
| 20260901221327 | 59 | 282 | 0.0 | 0.0 | 0.00 | 1.34 | 0.00 | 85 | 1020.6 |
| 20260901220337 | 59 | 282 | 0.0 | 0.0 | 0.00 | 1.34 | 0.00 | 85 | 1020.6 |
| 20260901215343 | 59 | 282 | 0.0 | 0.0 | 0.00 | 1.38 | 0.27 | 85 | 1020.6 |
| 20260901214321 | 59 | 282 | 0.0 | 0.0 | 0.00 | 1.38 | 0.27 | 84 | 1020.6 |
| 20260901213342 | 60 | 282 | 0.0 | 0.0 | 0.00 | 1.38 | 0.27 | 84 | 1020.7 |
| 20260901212337 | 60 | 282 | 0.0 | 0.0 | 0.00 | 1.38 | 0.27 | 84 | 1020.4 |
| 20260901211353 | 60 | 282 | 0.0 | 0.0 | 0.00 | 1.38 | 0.27 | 83 | 1020.6 |
| 20260901210351 | 60 | 282 | 0.0 | 0.0 | 0.00 | 1.38 | 0.27 | 83 | 1020.9 |
| 20260901205322 | 60 | 282 | 0.0 | 0.0 | 0.00 | 1.38 | 0.27 | 83 | 1021.0 |
| 20260901204319 | 60 | 282 | 0.0 | 0.0 | 0.00 | 1.38 | 0.27 | 82 | 1021.1 |
| 20260901203332 | 60 | 284 | 0.0 | 0.0 | 0.00 | 1.38 | 0.27 | 81 | 1021.0 |
| 20260901202332 | 61 | 282 | 0.0 | 0.0 | 0.00 | 1.38 | 0.27 | 81 | 1021.1 |
| 20260901201325 | 61 | 282 | 0.0 | 0.0 | 0.00 | 1.38 | 0.27 | 80 | 1021.1 |
| 20260901200354 | 61 | 282 | 0.0 | 0.0 | 0.00 | 1.38 | 0.27 | 79 | 1021.0 |
| 20260901195357 | 61 | 283 | 0.0 | 0.0 | 0.00 | 1.38 | 0.27 | 78 | 1021.0 |
| 20260901194325 | 62 | 282 | 0.0 | 0.0 | 0.00 | 1.38 | 0.27 | 77 | 1020.9 |
| 20260901193414 | 62 | 283 | 0.0 | 0.0 | 0.00 | 1.38 | 0.27 | 76 | 1020.8 |
| 20260901192328 | 63 | 283 | 0.0 | 0.0 | 0.00 | 1.38 | 0.27 | 75 | 1020.6 |
| 20260901191339 | 64 | 282 | 0.0 | 0.0 | 0.00 | 1.38 | 0.27 | 74 | 1020.7 |
| 20260901190330 | 64 | 282 | 0.0 | 0.0 | 0.00 | 1.38 | 0.27 | 73 | 1020.7 |
| 20260901185323 | 64 | 282 | 0.0 | 0.0 | 0.00 | 1.38 | 0.27 | 73 | 1020.6 |
| 20260901184322 | 65 | 283 | 0.0 | 0.0 | 0.00 | 1.38 | 0.27 | 72 | 1020.6 |
| 20260901183338 | 65 | 283 | 0.0 | 3.0 | 0.00 | 1.38 | 0.27 | 72 | 1020.6 |
| 20260901182356 | 65 | 286 | 1.0 | 4.0 | 0.00 | 1.38 | 0.27 | 71 | 1020.5 |
| 20260901181338 | 66 | 288 | 1.0 | 4.0 | 0.00 | 1.38 | 0.27 | 70 | 1020.5 |
| 20260901180327 | 66 | 292 | 2.0 | 4.0 | 0.00 | 1.38 | 0.27 | 70 | 1020.6 |
| 20260901175322 | 67 | 301 | 1.0 | 5.0 | 0.00 | 1.38 | 0.27 | 69 | 1020.6 |
| 20260901174337 | 67 | 292 | 3.0 | 7.0 | 0.00 | 1.38 | 0.27 | 68 | 1020.6 |
| 20260901173330 | 67 | 288 | 5.0 | 8.0 | 0.00 | 1.38 | 0.27 | 68 | 1020.7 |
| 20260901172335 | 68 | 208 | 4.0 | 10.0 | 0.00 | 1.38 | 0.27 | 68 | 1020.8 |
| 20260901171334 | 68 | 306 | 4.0 | 10.0 | 0.00 | 1.38 | 0.27 | 68 | 1020.8 |
| 20260901170348 | 69 | 296 | 6.0 | 9.0 | 0.00 | 1.38 | 0.27 | 67 | 1020.8 |
| 20260901165347 | 69 | 275 | 4.0 | 10.0 | 0.00 | 1.38 | 0.27 | 67 | 1020.8 |
| 20260901164321 | 69 | 287 | 3.0 | 11.0 | 0.00 | 1.38 | 0.27 | 66 | 1020.8 |
| 20260901163348 | 69 | 208 | 3.0 | 8.0 | 0.00 | 1.38 | 0.27 | 66 | 1020.7 |
| 20260901162328 | 69 | 303 | 7.0 | 11.0 | 0.00 | 1.38 | 0.27 | 65 | 1020.6 |
| 20260901161333 | 70 | 289 | 3.0 | 10.0 | 0.00 | 1.38 | 0.27 | 65 | 1020.7 |
| 20260901160323 | 71 | 306 | 4.0 | 12.0 | 0.00 | 1.38 | 0.27 | 62 | 1020.6 |
| 20260901155338 | 72 | 302 | 6.0 | 11.0 | 0.00 | 1.38 | 0.27 | 61 | 1020.6 |
| 20260901154342 | 71 | 196 | 5.0 | 9.0 | 0.00 | 1.38 | 0.27 | 62 | 1020.7 |
| 20260901153324 | 72 | 228 | 5.0 | 10.0 | 0.00 | 1.38 | 0.27 | 60 | 1020.5 |
| 20260901152319 | 72 | 208 | 3.0 | 10.0 | 0.00 | 1.38 | 0.27 | 61 | 1020.5 |
| 20260901151352 | 73 | 278 | 4.0 | 11.0 | 0.00 | 1.38 | 0.27 | 58 | 1020.6 |
| 20260901150338 | 72 | 292 | 4.0 | 12.0 | 0.00 | 1.38 | 0.27 | 61 | 1020.4 |
| 20260901145403 | 74 | 226 | 4.0 | 13.0 | 0.00 | 1.38 | 0.27 | 60 | 1020.5 |
| 20260901144353 | 73 | 284 | 5.0 | 11.0 | 0.00 | 1.38 | 0.27 | 58 | 1020.5 |
| 20260901143330 | 72 | 288 | 6.0 | 11.0 | 0.00 | 1.38 | 0.27 | 57 | 1020.4 |
| 20260901142325 | 71 | 308 | 4.0 | 14.0 | 0.00 | 1.38 | 0.27 | 60 | 1020.5 |
| 20260901141323 | 72 | 208 | 6.0 | 13.0 | 0.00 | 1.38 | 0.27 | 59 | 1020.5 |
| 20260901140345 | 72 | 236 | 6.0 | 12.0 | 0.00 | 1.38 | 0.27 | 59 | 1020.6 |
| 20260901135317 | 73 | 294 | 7.0 | 13.0 | 0.00 | 1.38 | 0.27 | 57 | 1020.5 |
| 20260901134342 | 73 | 241 | 6.0 | 12.0 | 0.00 | 1.38 | 0.27 | 59 | 1020.6 |
| 20260901133324 | 72 | 300 | 5.0 | 13.0 | 0.00 | 1.38 | 0.27 | 59 | 1020.5 |
| 20260901132340 | 73 | 280 | 7.0 | 11.0 | 0.00 | 1.38 | 0.27 | 60 | 1020.6 |
| 20260901131334 | 73 | 292 | 4.0 | 13.0 | 0.00 | 1.38 | 0.27 | 60 | 1020.6 |
| 20260901130327 | 72 | 208 | 5.0 | 13.0 | 0.00 | 1.38 | 0.27 | 62 | 1020.6 |
| 20260901125336 | 72 | 283 | 7.0 | 16.0 | 0.00 | 1.38 | 0.27 | 61 | 1020.5 |
| 20260901124334 | 72 | 208 | 6.0 | 13.0 | 0.00 | 1.38 | 0.27 | 61 | 1020.6 |
| 20260901123328 | 71 | 238 | 6.0 | 13.0 | 0.00 | 1.38 | 0.27 | 61 | 1020.5 |
| 20260901122340 | 72 | 309 | 6.0 | 12.0 | 0.00 | 1.38 | 0.27 | 61 | 1020.6 |
| 20260901121342 | 73 | 203 | 3.0 | 14.0 | 0.00 | 1.38 | 0.27 | 60 | 1020.7 |
| 20260901120348 | 73 | 298 | 5.0 | 15.0 | 0.00 | 1.38 | 0.27 | 60 | 1020.7 |
| 20260901115342 | 71 | 238 | 9.0 | 16.0 | 0.00 | 1.42 | 0.27 | 60 | 1020.7 |
| 20260901114338 | 71 | 294 | 7.0 | 16.0 | 0.00 | 1.42 | 0.27 | 61 | 1020.7 |
| 20260901113332 | 71 | 198 | 7.0 | 16.0 | 0.00 | 1.42 | 0.27 | 61 | 1020.6 |
| 20260901112322 | 72 | 208 | 5.0 | 15.0 | 0.00 | 1.42 | 0.27 | 61 | 1020.6 |
| 20260901111331 | 71 | 329 | 7.0 | 15.0 | 0.00 | 1.42 | 0.27 | 63 | 1020.6 |
| 20260901110321 | 71 | 208 | 5.0 | 16.0 | 0.00 | 1.42 | 0.27 | 63 | 1020.6 |
| 20260901105334 | 70 | 289 | 7.0 | 13.0 | 0.00 | 1.42 | 0.27 | 64 | 1020.6 |
| 20260901104346 | 71 | 279 | 5.0 | 13.0 | 0.00 | 1.42 | 0.27 | 63 | 1020.5 |
| 20260901103333 | 70 | 226 | 5.0 | 13.0 | 0.00 | 1.42 | 0.27 | 64 | 1020.6 |
| 20260901102323 | 70 | 326 | 7.0 | 15.0 | 0.00 | 1.42 | 0.27 | 65 | 1020.5 |
| 20260901101320 | 70 | 208 | 8.0 | 17.0 | 0.00 | 1.42 | 0.27 | 65 | 1020.5 |
| 20260901100320 | 70 | 273 | 3.0 | 14.0 | 0.00 | 1.42 | 0.27 | 69 | 1020.4 |
| 20260901095323 | 70 | 271 | 6.0 | 12.0 | 0.00 | 1.42 | 0.27 | 68 | 1020.4 |
| 20260901094335 | 69 | 213 | 6.0 | 14.0 | 0.00 | 1.42 | 0.27 | 70 | 1020.4 |
| 20260901093324 | 68 | 258 | 5.0 | 11.0 | 0.00 | 1.42 | 0.27 | 75 | 1020.3 |
| 20260901092337 | 68 | 256 | 4.0 | 14.0 | 0.00 | 1.42 | 0.27 | 75 | 1020.2 |
| 20260901091337 | 68 | 301 | 7.0 | 14.0 | 0.00 | 1.42 | 0.27 | 78 | 1020.2 |
| 20260901090349 | 66 | 289 | 4.0 | 12.0 | 0.00 | 1.42 | 0.27 | 82 | 1020.1 |
| 20260901085352 | 65 | 304 | 6.0 | 13.0 | 0.00 | 1.42 | 0.27 | 85 | 1020.1 |
| 20260901084343 | 63 | 300 | 5.0 | 9.0 | 0.00 | 1.42 | 0.27 | 90 | 1020.0 |
| 20260901083345 | 63 | 282 | 5.0 | 9.0 | 0.00 | 1.42 | 0.27 | 92 | 1020.0 |
| 20260901082357 | 62 | 299 | 3.0 | 8.0 | 0.00 | 1.42 | 0.27 | 94 | 1019.8 |
| 20260901081325 | 62 | 190 | 5.0 | 10.0 | 0.00 | 1.42 | 0.27 | 95 | 1019.6 |
| 20260901080357 | 61 | 302 | 5.0 | 11.0 | 0.00 | 1.42 | 0.27 | 95 | 1019.6 |
| 20260901075349 | 62 | 304 | 3.0 | 8.0 | 0.00 | 1.46 | 0.27 | 95 | 1019.5 |
| 20260901074323 | 62 | 208 | 3.0 | 6.0 | 0.00 | 1.46 | 0.27 | 95 | 1019.2 |
| 20260901073334 | 62 | 289 | 1.0 | 4.0 | 0.00 | 1.46 | 0.27 | 95 | 1019.2 |
| 20260901072350 | 62 | 289 | 2.0 | 4.0 | 0.00 | 1.46 | 0.27 | 95 | 1019.2 |
| 20260901071344 | 62 | 289 | 3.0 | 4.0 | 0.00 | 1.46 | 0.27 | 95 | 1019.2 |
| 20260901070348 | 62 | 290 | 1.0 | 4.0 | 0.00 | 1.46 | 0.27 | 95 | 1019.0 |
| 20260901065319 | 62 | 208 | 1.0 | 4.0 | 0.00 | 1.50 | 0.27 | 95 | 1018.9 |